Time,TemperatureF,DewpointF,PressureIn,WindDirection,WindDirectionDegrees,WindSpeedMPH,WindSpeedGustMPH,Humidity,HourlyPrecipIn,Conditions,Clouds,dailyrainin,SoftwareType,DateUTC
2013-03-16 00:02:00,33.0,19.0,-100.00,SE,130,6.0,7.0,55,0.00,,,-99.99,,2013-03-16 06:02:00,
2013-03-16 00:12:00,33.0,19.0,-100.00,SE,130,4.0,6.0,55,0.00,,,-99.99,,2013-03-16 06:12:00,
2013-03-16 00:21:00,33.0,19.0,-100.00,SE,125,4.0,6.0,56,0.00,,,-99.99,,2013-03-16 06:21:00,
2013-03-16 00:32:00,33.0,19.0,-100.00,SE,125,6.0,7.0,57,0.00,,,-99.99,,2013-03-16 06:32:00,
2013-03-16 00:42:00,32.0,19.0,-100.00,SE,130,7.0,9.0,57,0.00,,,-99.99,,2013-03-16 06:42:00,
2013-03-16 00:52:00,32.0,19.0,-100.00,SE,135,4.0,7.0,58,0.00,,,-99.99,,2013-03-16 06:52:00,
2013-03-16 01:02:00,32.0,19.0,-100.00,SE,140,4.0,6.0,58,0.00,,,-99.99,,2013-03-16 07:02:00,
2013-03-16 01:12:00,32.0,19.0,-100.00,SE,125,8.0,9.0,58,0.00,,,-99.99,,2013-03-16 07:12:00,
2013-03-16 01:22:00,31.0,19.0,-100.00,SE,130,6.0,9.0,58,0.00,,,-99.99,,2013-03-16 07:22:00,
2013-03-16 01:32:00,32.0,19.0,-100.00,SE,125,6.0,7.0,58,0.00,,,-99.99,,2013-03-16 07:32:00,
2013-03-16 01:42:00,32.0,19.0,-100.00,SE,130,4.0,7.0,58,0.00,,,-99.99,,2013-03-16 07:42:00,
2013-03-16 01:52:00,31.0,19.0,-100.00,SE,135,6.0,9.0,60,0.00,,,-99.99,,2013-03-16 07:52:00,
2013-03-16 02:02:00,31.0,19.0,-100.00,SE,135,6.0,7.0,60,0.00,,,-99.99,,2013-03-16 08:02:00,
2013-03-16 02:12:00,31.0,19.0,-100.00,SE,125,6.0,7.0,60,0.00,,,-99.99,,2013-03-16 08:12:00,
2013-03-16 02:22:00,31.0,19.0,-100.00,SE,130,7.0,8.0,60,0.00,,,-99.99,,2013-03-16 08:22:00,
2013-03-16 02:32:00,31.0,19.0,-100.00,SE,125,7.0,9.0,60,0.00,,,-99.99,,2013-03-16 08:32:00,
2013-03-16 02:42:00,31.0,19.0,-100.00,SE,130,6.0,8.0,61,0.00,,,-99.99,,2013-03-16 08:42:00,
2013-03-16 02:52:00,31.0,19.0,-100.00,ESE,120,4.0,9.0,61,0.00,,,-99.99,,2013-03-16 08:52:00,
2013-03-16 03:01:00,31.0,19.0,-100.00,SE,135,3.0,7.0,61,0.00,,,-99.99,,2013-03-16 09:01:00,
2013-03-16 03:11:00,32.0,20.0,-100.00,SE,125,7.0,9.0,60,0.00,,,-99.99,,2013-03-16 09:11:00,
2013-03-16 03:22:00,31.0,19.0,-100.00,SE,125,5.0,6.0,60,0.00,,,-99.99,,2013-03-16 09:22:00,
2013-03-16 03:32:00,31.0,19.0,-100.00,SE,130,4.0,7.0,61,0.00,,,-99.99,,2013-03-16 09:32:00,
2013-03-16 03:42:00,31.0,19.0,-100.00,SE,130,4.0,7.0,61,0.00,,,-99.99,,2013-03-16 09:42:00,
2013-03-16 03:52:00,32.0,20.0,-100.00,SE,135,3.0,6.0,61,0.00,,,-99.99,,2013-03-16 09:52:00,
2013-03-16 04:03:00,33.0,21.0,-100.00,SE,140,6.0,7.0,61,0.00,,,-99.99,,2013-03-16 10:03:00,
2013-03-16 04:12:00,33.0,21.0,-100.00,SE,125,4.0,6.0,60,0.00,,,-99.99,,2013-03-16 10:12:00,
2013-03-16 04:22:00,33.0,21.0,-100.00,SSE,160,1.0,7.0,60,0.00,,,-99.99,,2013-03-16 10:22:00,
2013-03-16 04:32:00,33.0,21.0,-100.00,SE,140,6.0,6.0,60,0.00,,,-99.99,,2013-03-16 10:32:00,
2013-03-16 04:42:00,33.0,20.0,-100.00,SE,140,4.0,6.0,61,0.00,,,-99.99,,2013-03-16 10:42:00,
2013-03-16 04:52:00,32.0,20.0,-100.00,ESE,120,5.0,6.0,61,0.00,,,-99.99,,2013-03-16 10:52:00,
2013-03-16 05:03:00,32.0,20.0,-100.00,SE,125,5.0,7.0,61,0.00,,,-99.99,,2013-03-16 11:03:00,
2013-03-16 05:12:00,32.0,20.0,-100.00,SE,135,6.0,6.0,61,0.00,,,-99.99,,2013-03-16 11:12:00,
2013-03-16 05:22:00,32.0,20.0,-100.00,ESE,120,5.0,7.0,61,0.00,,,-99.99,,2013-03-16 11:22:00,
2013-03-16 05:32:00,31.0,20.0,-100.00,ESE,120,5.0,6.0,61,0.00,,,-99.99,,2013-03-16 11:32:00,
2013-03-16 05:42:00,31.0,20.0,-100.00,SE,125,7.0,7.0,61,0.00,,,-99.99,,2013-03-16 11:42:00,
2013-03-16 05:52:00,31.0,20.0,-100.00,SE,125,6.0,7.0,62,0.00,,,-99.99,,2013-03-16 11:52:00,
2013-03-16 06:02:00,31.0,20.0,-100.00,SE,130,7.0,7.0,62,0.00,,,-99.99,,2013-03-16 12:02:00,
2013-03-16 06:12:00,31.0,20.0,-100.00,SE,135,6.0,8.0,63,0.00,,,-99.99,,2013-03-16 12:12:00,
2013-03-16 06:22:00,31.0,20.0,-100.00,SE,130,4.0,6.0,63,0.00,,,-99.99,,2013-03-16 12:22:00,
2013-03-16 06:32:00,31.0,20.0,-100.00,SE,135,6.0,7.0,63,0.00,,,-99.99,,2013-03-16 12:32:00,
2013-03-16 06:42:00,31.0,20.0,-100.00,SE,130,4.0,7.0,63,0.00,,,-99.99,,2013-03-16 12:42:00,
2013-03-16 06:52:00,32.0,21.0,-100.00,SE,130,5.0,7.0,62,0.00,,,-99.99,,2013-03-16 12:52:00,
2013-03-16 07:02:00,32.0,21.0,-100.00,SE,130,3.0,7.0,62,0.00,,,-99.99,,2013-03-16 13:02:00,
2013-03-16 07:12:00,32.0,21.0,-100.00,SE,130,4.0,6.0,62,0.00,,,-99.99,,2013-03-16 13:12:00,
2013-03-16 07:22:00,31.0,20.0,-100.00,SE,125,6.0,7.0,63,0.00,,,-99.99,,2013-03-16 13:22:00,
2013-03-16 07:31:00,32.0,21.0,-100.00,SE,125,6.0,7.0,63,0.00,,,-99.99,,2013-03-16 13:31:00,
2013-03-16 07:41:00,33.0,21.0,-100.00,SE,125,4.0,7.0,63,0.00,,,-99.99,,2013-03-16 13:41:00,
2013-03-16 07:52:00,33.0,22.0,-100.00,SE,125,5.0,6.0,62,0.00,,,-99.99,,2013-03-16 13:52:00,
2013-03-16 08:02:00,33.0,22.0,-100.00,SE,130,4.0,6.0,62,0.00,,,-99.99,,2013-03-16 14:02:00,
2013-03-16 08:12:00,33.0,22.0,-100.00,SE,130,4.0,6.0,63,0.00,,,-99.99,,2013-03-16 14:12:00,
2013-03-16 08:22:00,33.0,22.0,-100.00,SE,140,2.0,6.0,64,0.00,,,-99.99,,2013-03-16 14:22:00,
2013-03-16 08:32:00,34.0,23.0,-100.00,SE,125,7.0,9.0,64,0.00,,,-99.99,,2013-03-16 14:32:00,
2013-03-16 08:42:00,34.0,23.0,-100.00,West,270,0.0,6.0,63,0.00,,,-99.99,,2013-03-16 14:42:00,
2013-03-16 08:52:00,35.0,23.0,-100.00,SE,130,6.0,7.0,62,0.00,,,-99.99,,2013-03-16 14:52:00,
2013-03-16 09:02:00,35.0,23.0,-100.00,SE,140,4.0,7.0,61,0.00,,,-99.99,,2013-03-16 15:02:00,
2013-03-16 09:12:00,36.0,24.0,-100.00,ESE,120,1.0,5.0,61,0.00,,,-99.99,,2013-03-16 15:12:00,
2013-03-16 09:22:00,36.0,24.0,-100.00,NNE,25,3.0,4.0,60,0.00,,,-99.99,,2013-03-16 15:22:00,
2013-03-16 09:32:00,36.0,24.0,-100.00,NNE,25,3.0,4.0,60,0.00,,,-99.99,,2013-03-16 15:32:00,
2013-03-16 09:42:00,37.0,24.0,-100.00,NE,35,0.0,4.0,60,0.00,,,-99.99,,2013-03-16 15:42:00,
2013-03-16 09:53:00,38.0,25.0,-100.00,SSE,150,3.0,4.0,59,0.00,,,-99.99,,2013-03-16 15:53:00,
2013-03-16 10:02:00,39.0,25.0,-100.00,SE,145,2.0,4.0,57,0.00,,,-99.99,,2013-03-16 16:02:00,
2013-03-16 10:12:00,40.0,26.0,-100.00,SE,135,2.0,4.0,55,0.00,,,-99.99,,2013-03-16 16:12:00,
2013-03-16 10:22:00,41.0,26.0,-100.00,ENE,75,0.0,1.0,54,0.00,,,-99.99,,2013-03-16 16:22:00,
2013-03-16 10:33:00,42.0,26.0,-100.00,NNE,15,0.0,1.0,54,0.00,,,-99.99,,2013-03-16 16:33:00,
2013-03-16 10:42:00,42.0,26.0,-100.00,NW,310,2.0,3.0,52,0.00,,,-99.99,,2013-03-16 16:42:00,
2013-03-16 10:53:00,42.0,26.0,-100.00,West,270,4.0,6.0,51,0.00,,,-99.99,,2013-03-16 16:53:00,
2013-03-16 11:02:00,41.0,25.0,-100.00,SW,235,6.0,13.0,51,0.00,,,-99.99,,2013-03-16 17:02:00,
2013-03-16 11:12:00,41.0,26.0,-100.00,WNW,290,9.0,15.0,54,0.00,,,-99.99,,2013-03-16 17:12:00,
2013-03-16 11:22:00,42.0,27.0,-100.00,WNW,290,10.0,18.0,55,0.00,,,-99.99,,2013-03-16 17:22:00,
2013-03-16 11:32:00,42.0,27.0,-100.00,WNW,285,9.0,18.0,56,0.00,,,-99.99,,2013-03-16 17:32:00,
2013-03-16 11:42:00,40.0,27.0,-100.00,WNW,290,9.0,17.0,57,0.00,,,-99.99,,2013-03-16 17:42:00,
2013-03-16 11:52:00,40.0,27.0,-100.00,West,280,7.0,14.0,59,0.00,,,-99.99,,2013-03-16 17:52:00,
2013-03-16 12:02:00,39.0,27.0,-100.00,West,275,8.0,14.0,60,0.00,,,-99.99,,2013-03-16 18:02:00,
2013-03-16 12:12:00,39.0,27.0,-100.00,WNW,295,11.0,15.0,62,0.00,,,-99.99,,2013-03-16 18:12:00,
2013-03-16 12:22:00,38.0,28.0,-100.00,WSW,245,7.0,14.0,66,0.00,,,-99.99,,2013-03-16 18:22:00,
2013-03-16 12:32:00,38.0,29.0,-100.00,West,260,7.0,10.0,69,0.00,,,-99.99,,2013-03-16 18:32:00,
2013-03-16 12:42:00,38.0,30.0,-100.00,NNW,345,4.0,10.0,72,0.00,,,-99.99,,2013-03-16 18:42:00,
2013-03-16 12:52:00,38.0,31.0,-100.00,NNW,330,2.0,9.0,73,0.00,,,-99.99,,2013-03-16 18:52:00,
2013-03-16 13:02:00,39.0,31.0,-100.00,NW,315,5.0,7.0,73,0.00,,,-99.99,,2013-03-16 19:02:00,
2013-03-16 13:12:00,39.0,31.0,-100.00,NNW,330,1.0,6.0,72,0.00,,,-99.99,,2013-03-16 19:12:00,
2013-03-16 13:22:00,39.0,31.0,-100.00,West,280,4.0,10.0,73,0.00,,,-99.99,,2013-03-16 19:22:00,
2013-03-16 13:32:00,38.0,31.0,-100.00,WNW,290,7.0,11.0,73,0.00,,,-99.99,,2013-03-16 19:32:00,
2013-03-16 13:42:00,38.0,30.0,-100.00,NW,315,4.0,9.0,74,0.00,,,-99.99,,2013-03-16 19:42:00,
2013-03-16 13:52:00,37.0,30.0,-100.00,WNW,290,6.0,11.0,74,0.00,,,-99.99,,2013-03-16 19:52:00,
2013-03-16 14:02:00,37.0,30.0,-100.00,WNW,290,7.0,12.0,74,0.00,,,-99.99,,2013-03-16 20:02:00,
2013-03-16 14:12:00,37.0,30.0,-100.00,West,280,4.0,10.0,75,0.00,,,-99.99,,2013-03-16 20:12:00,
2013-03-16 14:21:00,37.0,31.0,-100.00,WSW,255,7.0,12.0,76,0.00,,,-99.99,,2013-03-16 20:21:00,
2013-03-16 14:32:00,37.0,31.0,-100.00,WSW,255,6.0,12.0,76,0.00,,,-99.99,,2013-03-16 20:32:00,
2013-03-16 14:42:00,38.0,31.0,-100.00,West,265,9.0,14.0,74,0.00,,,-99.99,,2013-03-16 20:42:00,
2013-03-16 14:52:00,37.0,30.0,-100.00,WSW,255,6.0,12.0,73,0.00,,,-99.99,,2013-03-16 20:52:00,
2013-03-16 15:01:00,37.0,30.0,-100.00,West,275,5.0,12.0,73,0.00,,,-99.99,,2013-03-16 21:01:00,
2013-03-16 15:11:00,38.0,30.0,-100.00,WNW,285,4.0,9.0,71,0.00,,,-99.99,,2013-03-16 21:11:00,
2013-03-16 15:22:00,38.0,29.0,-100.00,WNW,295,6.0,9.0,71,0.00,,,-99.99,,2013-03-16 21:22:00,
2013-03-16 15:32:00,38.0,30.0,-100.00,NW,320,7.0,16.0,72,0.00,,,-99.99,,2013-03-16 21:32:00,
2013-03-16 15:43:00,37.0,30.0,-100.00,WNW,295,2.0,9.0,76,0.00,,,-99.99,,2013-03-16 21:43:00,
2013-03-16 15:52:00,38.0,32.0,-100.00,North,0,0.0,2.0,77,0.00,,,-99.99,,2013-03-16 21:52:00,
2013-03-16 16:03:00,38.0,32.0,-100.00,ESE,115,2.0,6.0,78,0.00,,,-99.99,,2013-03-16 22:03:00,
2013-03-16 16:12:00,39.0,32.0,-100.00,SE,135,3.0,5.0,76,0.00,,,-99.99,,2013-03-16 22:12:00,
2013-03-16 16:22:00,39.0,31.0,-100.00,SE,135,4.0,6.0,74,0.00,,,-99.99,,2013-03-16 22:22:00,
2013-03-16 16:32:00,38.0,31.0,-100.00,NNE,30,6.0,9.0,75,0.00,,,-99.99,,2013-03-16 22:32:00,
2013-03-16 16:42:00,37.0,31.0,-100.00,NNE,20,4.0,9.0,76,0.00,,,-99.99,,2013-03-16 22:42:00,
2013-03-16 16:52:00,39.0,31.0,-100.00,ENE,75,2.0,7.0,74,0.00,,,-99.99,,2013-03-16 22:52:00,
2013-03-16 17:02:00,40.0,32.0,-100.00,NNE,25,6.0,11.0,73,0.00,,,-99.99,,2013-03-16 23:02:00,
2013-03-16 17:12:00,40.0,32.0,-100.00,NNE,30,4.0,9.0,70,0.00,,,-99.99,,2013-03-16 23:12:00,
2013-03-16 17:22:00,41.0,32.0,-100.00,NNW,345,1.0,6.0,69,0.00,,,-99.99,,2013-03-16 23:22:00,
2013-03-16 17:32:00,40.0,30.0,-100.00,NE,45,2.0,6.0,68,0.00,,,-99.99,,2013-03-16 23:32:00,
2013-03-16 17:42:00,40.0,31.0,-100.00,NNE,30,4.0,6.0,69,0.00,,,-99.99,,2013-03-16 23:42:00,
2013-03-16 17:52:00,40.0,30.0,-100.00,NNE,25,4.0,6.0,68,0.00,,,-99.99,,2013-03-16 23:52:00,
2013-03-16 18:01:00,40.0,30.0,-100.00,NNE,20,2.0,6.0,67,0.00,,,-99.99,,2013-03-17 00:01:00,
2013-03-16 18:12:00,40.0,29.0,-100.00,NNE,25,0.0,3.0,66,0.00,,,-99.99,,2013-03-17 00:12:00,
2013-03-16 18:22:00,40.0,29.0,-100.00,SSE,160,3.0,6.0,65,0.00,,,-99.99,,2013-03-17 00:22:00,
2013-03-16 18:32:00,39.0,29.0,-100.00,South,190,1.0,9.0,65,0.00,,,-99.99,,2013-03-17 00:32:00,
2013-03-16 18:42:00,39.0,28.0,-100.00,WSW,245,7.0,11.0,63,0.00,,,-99.99,,2013-03-17 00:42:00,
2013-03-16 18:52:00,38.0,26.0,-100.00,West,260,5.0,10.0,63,0.00,,,-99.99,,2013-03-17 00:52:00,
2013-03-16 19:01:00,37.0,26.0,-100.00,SE,130,0.0,9.0,64,0.00,,,-99.99,,2013-03-17 01:01:00,
2013-03-16 19:12:00,37.0,26.0,-100.00,NW,320,2.0,3.0,64,0.00,,,-99.99,,2013-03-17 01:12:00,
2013-03-16 19:22:00,37.0,26.0,-100.00,ESE,110,0.0,2.0,65,0.00,,,-99.99,,2013-03-17 01:22:00,
2013-03-16 19:32:00,37.0,26.0,-100.00,ESE,105,1.0,1.0,65,0.00,,,-99.99,,2013-03-17 01:32:00,
2013-03-16 19:42:00,36.0,26.0,-100.00,ESE,120,3.0,4.0,66,0.00,,,-99.99,,2013-03-17 01:42:00,
2013-03-16 19:52:00,35.0,26.0,-100.00,SSE,155,4.0,7.0,68,0.00,,,-99.99,,2013-03-17 01:52:00,
2013-03-16 20:02:00,35.0,26.0,-100.00,SE,145,4.0,6.0,68,0.00,,,-99.99,,2013-03-17 02:02:00,
2013-03-16 20:12:00,35.0,26.0,-100.00,SE,130,4.0,4.0,69,0.00,,,-99.99,,2013-03-17 02:12:00,
2013-03-16 20:22:00,34.0,25.0,-100.00,ESE,120,6.0,7.0,70,0.00,,,-99.99,,2013-03-17 02:22:00,
2013-03-16 20:32:00,33.0,25.0,-100.00,SE,125,5.0,7.0,70,0.00,,,-99.99,,2013-03-17 02:32:00,
2013-03-16 20:42:00,33.0,24.0,-100.00,SE,125,4.0,6.0,71,0.00,,,-99.99,,2013-03-17 02:42:00,
2013-03-16 20:52:00,32.0,24.0,-100.00,ESE,110,3.0,5.0,71,0.00,,,-99.99,,2013-03-17 02:52:00,
2013-03-16 21:02:00,31.0,24.0,-100.00,SE,130,4.0,6.0,72,0.00,,,-99.99,,2013-03-17 03:02:00,
2013-03-16 21:12:00,31.0,24.0,-100.00,ESE,115,6.0,6.0,72,0.00,,,-99.99,,2013-03-17 03:12:00,
2013-03-16 21:22:00,30.0,23.0,-100.00,ESE,115,5.0,6.0,74,0.00,,,-99.99,,2013-03-17 03:22:00,
2013-03-16 21:33:00,30.0,23.0,-100.00,SE,125,4.0,6.0,74,0.00,,,-99.99,,2013-03-17 03:33:00,
2013-03-16 21:42:00,29.0,23.0,-100.00,SE,125,6.0,7.0,75,0.00,,,-99.99,,2013-03-17 03:42:00,
2013-03-16 21:53:00,29.0,22.0,-100.00,SE,125,6.0,7.0,76,0.00,,,-99.99,,2013-03-17 03:53:00,
2013-03-16 22:02:00,29.0,23.0,-100.00,SE,125,4.0,7.0,77,0.00,,,-99.99,,2013-03-17 04:02:00,
2013-03-16 22:12:00,28.0,22.0,-100.00,SE,130,4.0,6.0,77,0.00,,,-99.99,,2013-03-17 04:12:00,
2013-03-16 22:23:00,28.0,22.0,-100.00,SE,130,5.0,6.0,78,0.00,,,-99.99,,2013-03-17 04:23:00,
2013-03-16 22:32:00,29.0,23.0,-100.00,SE,125,3.0,6.0,78,0.00,,,-99.99,,2013-03-17 04:32:00,
2013-03-16 22:42:00,29.0,23.0,-100.00,ESE,120,4.0,7.0,78,0.00,,,-99.99,,2013-03-17 04:42:00,
2013-03-16 22:53:00,28.0,22.0,-100.00,ESE,120,5.0,6.0,78,0.00,,,-99.99,,2013-03-17 04:53:00,
2013-03-16 23:02:00,28.0,22.0,-100.00,SE,135,6.0,7.0,78,0.00,,,-99.99,,2013-03-17 05:02:00,
2013-03-16 23:12:00,27.0,22.0,-100.00,SE,125,6.0,6.0,78,0.00,,,-99.99,,2013-03-17 05:12:00,
2013-03-16 23:22:00,27.0,21.0,-100.00,SE,130,6.0,7.0,79,0.00,,,-99.99,,2013-03-17 05:22:00,
2013-03-16 23:32:00,27.0,21.0,-100.00,ESE,120,6.0,7.0,79,0.00,,,-99.99,,2013-03-17 05:32:00,
2013-03-16 23:42:00,27.0,22.0,-100.00,SE,125,4.0,7.0,79,0.00,,,-99.99,,2013-03-17 05:42:00,
2013-03-16 23:52:00,27.0,21.0,-100.00,ESE,115,4.0,6.0,79,0.00,,,-99.99,,2013-03-17 05:52:00,